STARLINK-11249, 60728

Orbit data source: Space-Track

STARLINK-11249, 60728 is a payload satellite owned by SpaceX/Seattle (US) in LEO that was launched on Wed, 28 Aug 2024 UTC via an FALCON 9 launch vehicle from the Air Force Eastern Test Range (AFETR). Payload-class satellites include a variety of spacecraft equipped with specific instruments for various scientific and technological missions. These include communications satellites like Starlink; space stations such as the ISS; scientific satellites like the Hubble; Earth observation satellites from companies like Planet Labs, Umbra, and HawkEye 360; GPS; miniature CubeSats for education and research; and military/defense satellites.

Loading next visibility...
Identifier
60728, 2024-152J
Orbit
LEO
Last TLE update
20 hours ago
Origin
Manufacturer
SpaceX/Seattle
Mission
Operational Commercial Communications
Bus & Motor
STARLINK V2M, Unknown motor
Mass
730 kg wet, ~700 kg dry
Launch date (UTC)
2024-08-28 (8 months ago)
Launch vehicle
FALCON 9
Launch site
Air Force Eastern Test Range (AFETR)
Object type
Payload
Rocket body
Debris
Shape & HBR
Box + 2 Pan, 29 m
Radar Cross Section
36.964 m², Large (>1 m²)

Expand to show TLE details & history

TLE from 20 hours ago
0 STARLINK-11249
1 60728U 24152J   25128.43800360  .00001735  00000-0  19172-4 0  9999
2 60728  53.1591 180.9034 0001153  70.5905 289.5237 15.69721854 40918
Epoch: 2025-05-08T10:30Z
Definitive object data (Epoch: 2025-05-08T10:30:43.511Z)
Latitude
-0.00004°
Longitude
156.71358°
Altitude
360.348 km
Speed
7.694 km/s
True Right ascension
12h 03m 36s
True Declination
0° 00' 00"
Sunlit
Object was in full shadow at TLE epoch
Visualization TLE readout
Latitude
27.53482°
Longitude
-50.34915°
Altitude
360.76 km
Speed
7.697 km/s
Apparent Right ascension
00h 24m 58s
Apparent Declination
-6° 20' 37"
Sunlit
Object is in daylight
Visualization observer readout
Local Sidereal Time
15:08:22
Azimuth
58.547° ENE
Elevation
-40.353°
Doppler factor
1
Orbital elements
Apogee altitude
360.731 km
Perigee altitude
359.177 km
Semi-major axis
6,738.091 km
Eccentricity
0.0001153
Inclination
53.1591°
RAAN
180.9034°
Arg. of periapsis
70.5905°
True anomaly
289.51125°
Mean anomaly
289.5237°
Eccentric anomaly
289.51747°
Mean motion
3.92408 °/min
BSTAR
0.000019172
Orbital period
91.74 mins
Loading maneuver chart data...
Loading SW <> Apogee altitude chart data...
Loading historical data...
Loading historical data...
Loading historical data...
Loading historical data...
Loading historical data...
Loading historical data...
Loading historical data...

STARLINK-11249 Visibility forecast

Observer location: undefined°, undefined°

Span
Click to sort rows by Start time (UTC) header in descending order
Start Az.
Max El. time (UTC)
Max El. Az.
Max El.
End time (UTC)
End Az.
4 mins2025-05-09 13:00:27.205Z304.54° NW2025-05-09 13:01:27.205Z285.081° WNW42.662°2025-05-09 13:04:27.205Z134.801° SE
4 mins2025-05-10 05:29:27.205Z197.776° SSW2025-05-10 05:30:27.205Z153.356° SSE37.186°2025-05-10 05:33:27.205Z59.626° ENE
|